EW5134 Weather Reports


time (UTC)temp
C
wind
direction
speed
KPH
gust
KPH
rain 1hr
cm
rain 24hr
cm
rain mn
cm
humidity
%
barometer
mb
20260507020421 5 244 0.0 1.6 0.00 0.00 1.80 96 1012.3
20260507014918 5 242 0.0 0.0 0.00 0.00 1.80 96 1012.5
20260507013418 5 242 0.0 3.2 0.00 0.00 1.80 96 1012.5
20260507011920 5 242 0.0 3.2 0.00 0.00 1.80 96 1012.3
20260507010418 5 242 1.6 4.8 0.00 0.00 1.80 96 1012.4
20260507004919 5 258 1.6 4.8 0.00 0.00 1.80 96 1012.3
20260507003420 5 267 1.6 6.4 0.00 0.00 1.80 96 1012.2
20260507002617 5 276 4.8 11.3 0.00 0.00 1.80 96 1011.8
20260507000420 5 266 3.2 11.3 0.00 0.00 1.80 96 1011.6
20260506234915 5 273 3.2 9.7 0.00 0.00 1.80 96 1011.6
20260506233418 5 277 3.2 6.4 0.00 0.00 1.80 96 1011.4
20260506231916 6 277 3.2 6.4 0.00 0.00 1.80 96 1011.1
20260506230418 5 262 1.6 4.8 0.00 0.00 1.80 96 1010.6
20260506224916 6 248 1.6 6.4 0.00 0.00 1.80 96 1010.9
20260506223417 6 320 4.8 12.9 0.00 0.00 1.80 96 1011.0
20260506221916 6 332 6.4 14.5 0.00 0.00 1.80 96 1011.0
20260506221117 5 296 6.4 12.9 0.00 0.00 1.80 97 1011.1
20260506214846 5 344 9.7 14.5 0.00 0.00 1.80 97 1011.0
20260506213347 6 324 8.0 16.1 0.00 0.00 1.80 98 1010.7
20260506212427 5 316 12.9 20.9 0.00 0.00 1.80 97 1010.5
20260506211848 5 306 11.3 20.9 0.00 0.00 1.80 97 1010.7
20260506205545 5 327 9.7 20.9 0.00 0.00 1.80 97 1010.4
20260506204041 5 319 9.7 20.9 0.00 0.00 1.80 97 1010.4
20260506201847 5 332 11.3 22.5 0.00 0.00 1.80 98 1010.1
20260506200348 5 317 14.5 24.1 0.00 0.00 1.80 97 1010.1
20260506194845 6 348 14.5 22.5 0.00 0.00 1.80 97 1010.1
20260506194033 6 324 11.3 12.9 0.00 0.00 1.80 97 1009.9
20260506191737 6 294 12.9 17.7 0.08 1.30 1.80 97 1009.8
20260506190238 6 319 12.9 22.5 0.05 1.27 1.78 97 1009.8
20260506184737 6 313 14.5 19.3 0.03 1.24 1.75 97 1009.8
20260506183238 6 326 12.9 19.3 0.03 1.24 1.75 97 1009.5
20260506181740 6 319 9.7 16.1 0.03 1.22 1.73 97 1009.1
20260506180240 6 317 8.0 14.5 0.03 1.22 1.73 97 1009.1
20260506174737 6 319 6.4 12.9 0.03 1.22 1.73 97 1008.7
20260506173238 6 329 6.4 12.9 0.05 1.22 1.73 97 1008.8
20260506171739 6 329 6.4 12.9 0.05 1.19 1.70 97 1008.7
20260506170240 6 10 4.8 12.9 0.05 1.19 1.70 97 1008.6
20260506164736 6 339 4.8 8.0 0.08 1.19 1.70 97 1008.5
20260506163241 6 328 4.8 9.7 0.05 1.17 1.68 97 1008.7
20260506161738 6 347 4.8 6.4 0.03 1.14 1.65 97 1008.7
20260506160241 6 5 3.2 8.0 0.03 1.14 1.65 97 1008.8
20260506154728 6 50 3.2 6.4 0.03 1.12 1.63 97 1008.9
20260506153231 6 9 3.2 8.0 0.08 1.12 1.63 97 1008.7
20260506151706 6 355 4.8 9.7 0.10 1.12 1.63 97 1008.7
20260506150909 6 53 6.4 11.3 0.15 1.12 1.63 97 1008.3
20260506144708 6 76 3.2 11.3 0.18 1.09 1.60 97 1008.3
20260506143209 6 38 4.8 8.0 0.20 1.04 1.57 97 1008.3
20260506142359 6 5 3.2 8.0 0.25 1.02 1.52 97 1008.4
20260506140208 5 68 6.4 12.9 0.30 0.97 1.47 97 1008.4
20260506134706 5 58 4.8 9.7 0.38 0.91 1.42 97 1008.5
20260506133205 5 5 4.8 14.5 0.38 0.84 1.35 96 1008.7
20260506131703 6 5 4.8 9.7 0.38 0.76 1.27 96 1008.9
20260506130217 6 16 4.8 9.7 0.30 0.64 1.14 97 1008.5
20260506124702 6 46 4.8 12.9 0.28 0.53 1.04 96 1008.4
20260506123203 6 39 6.4 14.5 0.28 0.46 0.97 96 1008.3
20260506121701 6 68 3.2 11.3 0.28 0.38 0.89 96 1008.4
20260506120203 6 35 6.4 16.1 0.33 0.33 0.84 96 1008.5
20260506114700 6 32 6.4 17.7 0.25 0.25 0.76 96 1008.4
20260506113203 6 46 8.0 14.5 0.15 0.15 0.66 96 1008.2
20260506111701 6 54 4.8 9.7 0.10 0.10 0.61 96 1008.5
20260506110158 6 80 4.8 6.4 0.00 0.00 0.51 96 1008.7
20260506104652 6 78 6.4 16.1 0.13 0.56 0.43 96 1008.7
20260506103155 5 79 11.3 20.9 0.13 0.51 0.38 96 1008.5
20260506101652 6 82 11.3 20.9 0.10 0.46 0.33 96 1008.2
20260506100208 5 58 12.9 22.5 0.10 0.43 0.30 96 1008.6
20260506094628 6 74 11.3 22.5 0.13 0.43 0.30 96 1008.7
20260506093129 6 65 9.7 20.9 0.10 0.38 0.25 96 1009.0
20260506092327 6 355 11.3 24.1 0.13 0.36 0.23 96 1009.0
20260506091558 7 64 6.4 19.3 0.13 0.33 0.20 96 1009.3
20260506084628 7 38 9.7 20.9 0.10 0.30 0.18 96 1008.9
20260506083131 7 64 8.0 17.7 0.10 0.28 0.15 96 1008.9
20260506081629 7 16 8.0 14.5 0.05 0.23 0.10 96 1009.0
20260506080142 7 11 6.4 14.5 0.03 0.20 0.08 96 1009.1
20260506073130 8 78 8.0 14.5 0.00 0.18 0.05 97 1008.6
20260506071628 8 117 8.0 14.5 0.00 0.18 0.05 96 1008.7
20260506070821 7 92 4.8 9.7 0.05 0.18 0.05 96 1009.1
20260506062331 7 76 9.7 16.1 0.05 0.18 0.05 96 1009.9
20260506060130 8 267 6.4 16.1 0.00 0.13 0.00 96 1011.3
20260506050127 7 32 3.2 9.7 0.00 0.13 0.00 96 1010.9
20260506044625 7 15 3.2 8.0 0.00 0.13 0.00 96 1010.7
20260506043124 8 56 6.4 12.9 0.03 0.13 0.00 95 1010.7
20260506041622 8 71 4.8 9.7 0.03 0.13 0.00 96 1010.8
20260506040122 8 137 4.8 9.7 0.08 0.13 0.00 96 1011.2
20260506034622 8 126 4.8 9.7 0.08 0.13 0.51 95 1011.1
20260506033122 8 51 4.8 12.9 0.10 0.10 0.48 95 1011.1
20260506031621 8 92 4.8 12.9 0.10 0.10 0.48 95 1011.5
20260506030818 8 88 1.6 9.7 0.05 0.05 0.43 94 1011.4
20260506025314 8 355 4.8 12.9 0.05 0.05 0.43 94 1011.5
20260506023119 8 0 3.2 8.0 0.00 0.00 0.38 93 1011.2